Portada
METAR-TAF:

METAR-TAF

Aeroports :

Greenville, Maine, Estats Units d'Amèrica

latitud: 45-28N, longitud: 069-35W, altitud: 427 m

Observació

L'informe es va fer fa 19 minuts, a les 19:56 UTC
Vent 9 kt del Nord-Oest amb ràfegues de 18 kt
Temperatura 15°C
Humitat 63%
Pressió 1015 hPa

METAR: KGNR 151956Z AUTO 31009G18KT 15/08 A2997 RMK AO1 SLP151 T01500078

Hora: 16:15 (20:15 UTC)


TAF: manca

Observacions i pronòstics meteorològics de més de 4000 aeroports (METAR i TAF).

Les estacions disponibles són els punts grocs i vermells al mapa.

Posi el ratolí al punt desitjat per veure el nom de l'estació.

Feu clic per veure les observacions i els pronòstics meteorològics.

Per canviar el mapa: feu clic els botons verds amb una creu de color negre per apropar; al botó verd amb un guió per allunyar la imatge; o en les fletxes verdes per a mapes adjacents.


METAR-TAF: